カタログに戻る

DELTA 2 DEB

DPAF

運用中PO
NORAD 29110·DEBRIS·🇺🇸 United States

打ち上げ Apr 28, 2006 から Vandenberg Space Force Base

Loading…

次のパス (今後24時間)

TLE

最新Source: Space-Track

元期: Sep 14, 2026, 13:38 UTC

1 29110U 06016D   26257.56851175  .00045315  00000-0  12126-2 0  9998
2 29110  98.3240 195.3363 0004934  61.8412 298.3328 15.37896335 97497

AllMySatでDELTA 2 DEBをリアルタイム追跡

Download on the App Store